GNDRAP-WX Weather Reports


time (UTC)temp
F
wind
direction
speed
knots
gust
knots
rain 1hr
in
rain 24hr
in
rain mn
in
humidity
%
barometer
mb
20260901181553 89 224 9.6 0.0 0.00 0.00 0.00 60 988.3
20260901180058 89 232 11.3 0.0 0.00 0.00 0.00 60 988.3
20260901174553 89 229 11.3 0.0 0.00 0.00 0.00 62 988.0
20260901173054 88 229 9.6 0.0 0.00 0.00 0.00 64 988.4
20260901171554 88 228 8.7 0.0 0.00 0.00 0.00 64 988.4
20260901170049 87 231 7.0 0.0 0.00 0.00 0.00 64 988.4
20260901164549 86 233 7.0 0.0 0.00 0.00 0.00 78 988.5
20260901163054 86 246 7.0 0.0 0.00 0.00 0.00 79 988.0
20260901161553 85 247 6.1 0.0 0.00 0.00 0.00 79 988.0
20260901160054 84 241 5.2 0.0 0.00 0.00 0.00 79 988.0
20260901154552 83 240 5.2 0.0 0.00 0.00 0.00 89 987.7
20260901153049 82 235 4.3 0.0 0.00 0.00 0.00 89 987.7
20260901151551 79 236 3.5 0.0 0.00 0.00 0.00 89 987.6
20260901150049 79 239 3.5 0.0 0.00 0.00 0.00 89 987.6
20260901144549 78 232 2.6 0.0 0.00 0.00 0.00 90 986.9
20260901143054 77 232 1.7 0.0 0.00 0.00 0.00 85 988.1
20260901141554 78 233 3.5 0.0 0.00 0.00 0.00 83 988.7
20260901140054 77 222 4.3 0.0 0.00 0.00 0.00 83 988.7
20260901134555 77 215 5.2 0.0 0.00 0.00 0.00 87 987.9
20260901133054 76 210 5.2 0.0 0.00 0.00 0.00 87 987.9
20260901131554 75 201 4.3 0.0 0.00 0.00 0.00 87 987.9
20260901130052 74 191 3.5 0.0 0.00 0.00 0.00 87 987.9
20260901124608 73 180 3.5 0.0 0.00 0.00 0.00 92 987.4
20260901123054 71 121 0.9 0.0 0.00 0.00 0.00 91 987.2
20260901121553 71 157 0.9 0.0 0.00 0.00 0.00 91 987.2
20260901114553 69 172 2.6 0.0 0.00 0.00 0.00 89 986.4
20260901113059 69 187 2.6 0.0 0.00 0.00 0.00 89 986.7
20260901111553 69 204 4.3 0.0 0.00 0.00 0.00 89 986.7
20260901110058 70 201 4.3 0.0 0.00 0.00 0.00 89 986.7
20260901104557 70 211 3.5 0.0 0.00 0.00 0.00 88 987.2
20260901103058 70 221 3.5 0.0 0.00 0.00 0.00 88 987.2
20260901101600 70 219 3.5 0.0 0.00 0.00 0.00 88 987.1
20260901094554 71 227 4.3 0.0 0.00 0.00 0.00 90 986.2
20260901093058 71 227 4.3 0.0 0.00 0.00 0.00 89 986.5
20260901091600 71 232 4.3 0.0 0.00 0.00 0.00 89 986.5
20260901090058 71 225 4.3 0.0 0.00 0.00 0.00 89 986.5
20260901084553 71 225 5.2 0.0 0.00 0.00 0.00 89 986.0
20260901083058 71 223 4.3 0.0 0.00 0.00 0.00 89 985.6
20260901081559 71 226 6.1 0.0 0.00 0.00 0.00 89 985.6
20260901080054 71 224 5.2 0.0 0.00 0.00 0.00 89 986.1
20260901074559 71 220 5.2 0.0 0.00 0.00 0.00 89 985.7
20260901073057 71 222 5.2 0.0 0.00 0.00 0.00 89 985.7
20260901071553 71 240 5.2 0.0 0.00 0.00 0.00 89 985.7
20260901070053 71 236 5.2 0.0 0.00 0.00 0.00 89 985.7
20260901064600 71 233 5.2 0.0 0.00 0.00 0.00 88 985.9
20260901063048 72 237 5.2 0.0 0.00 0.00 0.00 88 985.9
20260901061555 72 232 5.2 0.0 0.00 0.00 0.00 88 985.9
20260901060058 72 221 6.1 0.0 0.00 0.00 0.00 88 985.9
20260901054558 72 224 6.1 0.0 0.00 0.00 0.00 87 986.3
20260901053059 72 225 5.2 0.0 0.00 0.00 0.00 86 986.0
20260901051553 73 234 6.1 0.0 0.00 0.00 0.00 86 986.0
20260901050103 73 233 6.1 0.0 0.00 0.00 0.00 86 986.0
20260901044558 73 236 5.2 0.0 0.00 0.00 0.00 84 986.4
20260901043053 73 244 6.1 0.0 0.00 0.00 0.00 83 986.1
20260901041557 73 243 5.2 0.0 0.00 0.00 0.00 83 986.1
20260901034557 73 240 4.3 0.0 0.00 0.00 0.00 83 986.2
20260901033057 73 225 4.3 0.0 0.00 0.00 0.00 84 986.3
20260901031557 73 246 4.3 0.0 0.00 0.00 0.00 84 986.3
20260901030057 73 237 3.5 0.0 0.00 0.00 0.00 84 986.3
20260901024557 73 223 3.5 0.0 0.00 0.00 0.00 83 987.2
20260901023056 73 220 4.3 0.0 0.00 0.00 0.00 85 986.6
20260901021555 74 226 7.0 0.0 0.00 0.00 0.00 85 986.6
20260901014556 74 218 6.1 0.0 0.00 0.00 0.00 85 986.8
20260901013054 74 213 5.2 0.0 0.00 0.00 0.00 85 986.8
20260901011556 74 225 5.2 0.0 0.00 0.00 0.00 85 986.7
20260901010059 74 233 4.3 0.0 0.00 0.00 0.00 85 986.7
20260901004556 74 236 5.2 0.0 0.00 0.00 0.00 81 986.8
20260901003055 75 230 5.2 0.0 0.00 0.00 0.00 81 986.2
20260901001556 76 221 6.1 0.0 0.00 0.00 0.00 81 986.2
20260901000054 77 217 6.1 0.0 0.00 0.00 0.00 81 986.2
20260831234557 78 222 5.2 0.0 0.00 0.05 0.05 76 986.5
20260831233057 78 217 5.2 0.0 0.00 0.05 0.05 69 986.1
20260831231557 80 224 6.1 0.0 0.00 0.05 0.05 69 986.2
20260831230059 81 220 6.1 0.0 0.00 0.05 0.05 69 986.2
20260831224557 82 216 7.0 0.0 0.00 0.05 0.05 71 986.5
20260831223058 83 214 8.7 0.0 0.00 0.05 0.05 63 986.8
20260831221553 83 213 9.6 0.0 0.00 0.05 0.05 63 986.8
20260831220057 83 211 9.6 0.0 0.00 0.05 0.05 63 986.8
20260831214556 83 209 9.6 0.0 0.00 0.05 0.05 66 987.4
20260831213054 83 206 9.6 0.0 0.00 0.05 0.05 63 986.9
20260831211556 85 207 9.6 0.0 0.00 0.05 0.05 63 987.0
20260831210056 85 207 8.7 0.0 0.00 0.05 0.05 63 987.0
20260831204554 84 200 8.7 0.0 0.02 0.05 0.05 72 987.9
20260831203054 83 196 9.6 0.0 0.02 0.05 0.05 75 987.5
20260831201555 81 200 10.4 0.0 0.00 0.03 0.03 75 987.5
20260831200056 80 194 9.6 0.0 0.00 0.03 0.03 81 987.8
20260831194556 81 203 11.3 0.0 0.03 0.03 0.03 75 988.6
20260831193056 80 202 10.4 0.0 0.03 0.03 0.03 75 988.6
20260831191556 79 189 11.3 0.0 0.18 0.18 0.18 75 988.6
20260831190058 80 222 8.7 0.0 0.18 0.18 0.18 64 988.0
20260831184554 83 198 7.8 0.0 0.00 0.00 0.00 61 988.2
20260831183055 86 197 10.4 0.0 0.00 0.00 0.00 61 988.3